CW2927 Weather Reports


time (UTC)temp
C
wind
direction
speed
KPH
gust
KPH
rain 1hr
cm
rain 24hr
cm
rain mn
cm
humidity
%
barometer
mb
20260509204704 18 122 6.4 19.3 0.00 0.00 0.00 30 1006.1
20260509204205 18 139 8.0 27.4 0.00 0.00 0.00 30 1006.3
20260509202704 18 130 9.7 19.3 0.00 0.00 0.00 30 1006.3
20260509202205 18 161 9.7 24.1 0.00 0.00 0.00 29 1006.3
20260509200705 18 111 8.0 16.1 0.00 0.00 0.00 29 1006.4
20260509200204 18 157 6.4 25.7 0.00 0.00 0.00 29 1006.4
20260509194704 18 114 8.0 16.1 0.00 0.00 0.00 29 1006.4
20260509194204 18 154 4.8 22.5 0.00 0.00 0.00 29 1006.4
20260509192704 18 114 8.0 20.9 0.00 0.00 0.00 29 1006.6
20260509192204 18 129 11.3 19.3 0.00 0.00 0.00 29 1006.6
20260509190704 18 106 4.8 11.3 0.00 0.00 0.00 30 1006.7
20260509190205 18 145 8.0 19.3 0.00 0.00 0.00 32 1006.9
20260509184704 18 125 4.8 11.3 0.00 0.00 0.00 33 1007.2
20260509184204 18 163 4.8 14.5 0.00 0.00 0.00 32 1007.3
20260509182705 18 118 4.8 11.3 0.00 0.00 0.00 33 1007.7
20260509182205 18 172 4.8 16.1 0.00 0.00 0.00 35 1007.8
20260509180704 18 116 3.2 8.0 0.00 0.00 0.00 33 1007.9
20260509180205 17 120 4.8 16.1 0.00 0.00 0.00 34 1008.1
20260509174704 17 170 6.4 12.9 0.00 0.00 0.00 33 1008.4
20260509174204 17 128 4.8 16.1 0.00 0.00 0.00 32 1008.4
20260509172704 17 110 8.0 19.3 0.00 0.00 0.00 33 1008.6
20260509172204 17 170 4.8 19.3 0.00 0.00 0.00 35 1008.7
20260509170705 17 173 4.8 9.7 0.00 0.00 0.00 36 1008.9
20260509170205 17 189 4.8 16.1 0.00 0.00 0.00 35 1008.9
20260509164704 17 194 6.4 16.1 0.00 0.00 0.00 36 1009.2
20260509164204 17 199 4.8 24.1 0.00 0.00 0.00 34 1009.2
20260509162704 17 243 4.8 11.3 0.00 0.00 0.00 36 1009.5
20260509162205 17 178 6.4 14.5 0.00 0.00 0.00 34 1009.6
20260509160704 16 165 8.0 14.5 0.00 0.00 0.00 35 1009.7
20260509160205 16 169 8.0 14.5 0.00 0.00 0.00 36 1009.9
20260509154704 16 182 8.0 14.5 0.00 0.00 0.00 37 1010.1
20260509154204 16 219 4.8 19.3 0.00 0.00 0.00 38 1010.1
20260509152704 16 154 8.0 16.1 0.00 0.00 0.00 39 1010.3
20260509152204 16 168 8.0 19.3 0.00 0.00 0.00 36 1010.2
20260509150704 15 158 8.0 16.1 0.00 0.00 0.00 37 1010.3
20260509150204 15 160 8.0 20.9 0.00 0.00 0.00 39 1010.3
20260509144704 15 139 4.8 14.5 0.00 0.00 0.00 42 1010.4
20260509144204 15 121 8.0 19.3 0.00 0.00 0.00 40 1010.4
20260509142704 14 196 4.8 12.9 0.00 0.00 0.00 42 1010.5
20260509142204 14 179 8.0 19.3 0.00 0.00 0.00 43 1010.5
20260509140706 13 166 9.7 19.3 0.00 0.00 0.00 43 1010.7
20260509140204 13 181 8.0 19.3 0.00 0.00 0.00 43 1010.7
20260509134704 12 185 6.4 12.9 0.00 0.00 0.00 47 1010.8
20260509134204 12 179 8.0 19.3 0.00 0.00 0.00 47 1010.9
20260509132704 12 175 8.0 22.5 0.00 0.00 0.00 47 1011.0
20260509132204 12 189 4.8 16.1 0.00 0.00 0.00 50 1011.0
20260509130204 11 185 8.0 19.3 0.00 0.00 0.00 51 1011.0
20260509124204 10 187 6.4 24.1 0.00 0.00 0.00 54 1011.1
20260509122204 9 172 8.0 19.3 0.00 0.00 0.00 56 1011.2
20260509120704 8 171 8.0 12.9 0.00 0.00 0.00 61 1011.2
20260509120204 7 170 4.8 12.9 0.00 0.00 0.00 62 1011.2
20260509114704 7 165 4.8 14.5 0.00 0.00 0.00 63 1011.2
20260509114204 7 155 6.4 11.3 0.00 0.00 0.00 64 1011.2
20260509112704 6 167 3.2 4.8 0.00 0.00 0.00 68 1011.1
20260509112203 6 167 6.4 9.7 0.00 0.00 0.00 67 1011.2
20260509110704 5 168 4.8 8.0 0.00 0.00 0.00 70 1011.1
20260509110204 5 167 3.2 4.8 0.00 0.00 0.00 70 1011.1
20260509104704 5 167 3.2 4.8 0.00 0.00 0.00 72 1010.9
20260509104204 4 167 3.2 4.8 0.00 0.00 0.00 73 1010.9
20260509102204 3 167 1.6 4.8 0.00 0.00 0.00 76 1010.6
20260509100704 3 167 3.2 4.8 0.00 0.00 0.00 77 1010.6
20260509100204 3 167 1.6 4.8 0.00 0.00 0.00 77 1010.4
20260509094704 2 167 1.6 4.8 0.00 0.00 0.00 78 1010.2
20260509094204 2 167 1.6 4.8 0.00 0.00 0.00 78 1010.1
20260509092704 3 167 1.6 3.2 0.00 0.00 0.00 77 1010.1
20260509092204 3 167 1.6 3.2 0.00 0.00 0.00 77 1010.1
20260509090704 3 167 1.6 3.2 0.00 0.00 0.00 75 1010.2
20260509090204 3 167 1.6 4.8 0.00 0.00 0.00 74 1010.2
20260509084704 4 167 1.6 4.8 0.00 0.00 0.00 74 1010.2
20260509084204 4 167 1.6 4.8 0.00 0.00 0.00 74 1010.2
20260509082704 5 167 3.2 4.8 0.00 0.00 0.00 73 1010.3
20260509082204 5 167 1.6 4.8 0.00 0.00 0.00 73 1010.3
20260509080704 5 167 3.2 4.8 0.00 0.00 0.00 72 1010.3
20260509080204 5 167 3.2 4.8 0.00 0.00 0.00 72 1010.3
20260509074205 5 168 3.2 4.8 0.00 0.00 0.00 72 1010.2
20260509072705 5 165 3.2 4.8 0.00 0.00 0.00 71 1010.2
20260509072205 5 167 3.2 8.0 0.00 0.00 0.00 72 1010.2
20260509070705 5 167 4.8 8.0 0.00 0.00 0.00 74 1010.1
20260509070205 5 170 3.2 8.0 0.00 0.00 0.00 74 1010.0
20260509064705 4 170 3.2 4.8 0.00 0.00 0.00 75 1010.0
20260509064205 4 170 3.2 4.8 0.00 0.00 0.00 76 1010.0
20260509062705 3 171 1.6 3.2 0.00 0.00 0.00 78 1009.9
20260509062205 3 171 1.6 4.8 0.00 0.00 0.00 77 1010.0
20260509060705 3 171 1.6 3.2 0.00 0.00 0.00 78 1010.0
20260509060205 3 171 1.6 3.2 0.00 0.00 0.00 77 1010.0
20260509054705 4 171 1.6 3.2 0.00 0.00 0.00 77 1010.1
20260509054205 4 171 1.6 3.2 0.00 0.00 0.00 77 1010.1
20260509052705 4 171 1.6 3.2 0.00 0.00 0.00 76 1010.1
20260509052205 4 171 1.6 3.2 0.00 0.00 0.00 76 1010.1
20260509050705 5 171 1.6 3.2 0.00 0.00 0.00 75 1010.1
20260509050205 5 171 1.6 4.8 0.00 0.00 0.00 75 1010.1
20260509044705 5 171 1.6 4.8 0.00 0.00 0.00 75 1010.0
20260509044204 5 171 1.6 4.8 0.00 0.00 0.00 75 1010.1
20260509042704 4 171 1.6 4.8 0.00 0.00 0.00 76 1010.0
20260509042205 4 171 3.2 4.8 0.00 0.00 0.00 76 1010.0
20260509040704 4 171 1.6 3.2 0.00 0.00 0.00 77 1009.9
20260509040204 4 171 1.6 3.2 0.00 0.00 0.00 77 1009.8
20260509034705 4 171 1.6 1.6 0.00 0.00 0.00 75 1009.7
20260509034205 5 171 1.6 4.8 0.00 0.00 0.00 74 1009.7
20260509032705 5 171 3.2 4.8 0.00 0.00 0.00 73 1009.7
20260509032205 5 171 1.6 4.8 0.00 0.00 0.00 72 1009.6
20260509030708 5 171 1.6 4.8 0.00 0.00 0.00 71 1009.6
20260509030205 6 171 3.2 4.8 0.00 0.00 0.00 71 1009.6
20260509024705 6 171 3.2 4.8 0.00 0.00 0.00 69 1009.6
20260509024205 6 171 3.2 9.7 0.00 0.00 0.00 69 1009.6
20260509022705 6 173 3.2 4.8 0.00 0.00 0.00 68 1009.5
20260509022205 6 173 3.2 8.0 0.00 0.00 0.00 68 1009.6
20260509020704 7 175 4.8 9.7 0.00 0.00 0.00 67 1009.5
20260509020204 7 176 3.2 4.8 0.00 0.00 0.00 68 1009.5
20260509014704 7 175 3.2 8.0 0.00 0.00 0.00 68 1009.4
20260509014205 7 180 3.2 8.0 0.00 0.00 0.00 68 1009.3
20260509012704 7 180 1.6 4.8 0.00 0.00 0.00 68 1009.2
20260509012205 7 180 1.6 4.8 0.00 0.00 0.00 67 1009.2
20260509010705 7 180 3.2 4.8 0.00 0.00 0.00 66 1009.0
20260509010205 7 180 3.2 8.0 0.00 0.00 0.00 65 1009.0
20260509004704 7 186 3.2 4.8 0.00 0.00 0.00 64 1008.8
20260509004204 8 186 3.2 4.8 0.00 0.00 0.00 63 1008.7
20260509002705 8 186 3.2 4.8 0.00 0.00 0.00 63 1008.5
20260509002205 8 187 3.2 9.7 0.00 0.00 0.00 63 1008.5
20260509000704 8 192 3.2 4.8 0.00 0.00 0.00 62 1008.3
20260509000204 8 193 3.2 4.8 0.00 0.00 0.00 61 1008.2
20260508234705 8 194 1.6 4.8 0.00 0.00 0.00 59 1008.2
20260508234205 8 194 1.6 8.0 0.00 0.00 0.00 59 1008.2
20260508232705 9 219 4.8 9.7 0.00 0.00 0.00 58 1008.1
20260508232204 9 219 6.4 16.1 0.00 0.00 0.00 59 1008.1
20260508230704 10 169 4.8 19.3 0.00 0.00 0.00 57 1008.2
20260508230204 10 198 4.8 14.5 0.00 0.00 0.00 56 1008.2
20260508224705 10 190 6.4 12.9 0.00 0.00 0.00 55 1008.1
20260508224204 10 284 4.8 14.5 0.00 0.00 0.00 53 1008.0
20260508222705 10 243 8.0 12.9 0.00 0.00 0.00 52 1008.0
20260508222205 10 270 4.8 14.5 0.00 0.00 0.00 53 1007.9
20260508220704 11 202 6.4 12.9 0.00 0.00 0.00 53 1007.9
20260508220204 11 202 4.8 12.9 0.00 0.00 0.00 52 1007.9
20260508214704 10 244 4.8 9.7 0.00 0.00 0.00 50 1007.7
20260508214205 10 219 4.8 12.9 0.00 0.00 0.00 51 1007.7
20260508212705 10 309 6.4 11.3 0.00 0.00 0.00 50 1007.7
20260508212205 10 221 4.8 11.3 0.00 0.00 0.00 50 1007.6
20260508210704 10 253 4.8 9.7 0.00 0.00 0.00 50 1007.6
20260508210204 10 275 6.4 14.5 0.00 0.00 0.00 50 1007.7